APRIZESAT 1

Last updated on Mon Sep 07 2026 00:03:15 GMT+0000 (Coordinated Universal Time)

1 28372U 04025G 26249.62041430 .00000086 00000+0 33362-4 0 9990 2 28372 98.6324 262.5717 0043301 267.5963 92.0273 14.51814927173720
UTC large
Height (km)
Speed (km/s)
/
Latitude / Longitude
Inclination (degrees)
Orbital Period (minutes)
Azimuth
Elevation
Range (km)
Doppler Factor

Next 0 passes for location: London (51.5072 / 0.1276)

No passes found over London.
APRIZESAT 1